Location: Borojevi?i
(45.0486°N, 16.2297°E)
Time: 16:42:24
(UTC+00:00)

USA 234 - Pass Details

Date: 08 August 2020
Orbit: 1101 x 1107 km, 123.0° (Epoch: 22 September)

Event Time Altitude Azimuth Distance (km) Brightness Sun altitude
Exits shadow 20:18:43 29° 127° (SE) 1,881 3.9 -18.9°
Maximum altitude 20:22:20 90° 207° (SSW) 1,107 3.2 -19.3°
Drops below altitude 10° 20:28:55 10° 309° (NW) 2,966 6.7 -20.1°
Sets 20:31:24 0° 310° (NW) 3,927 7.6 -20.3°
